EHI
0 0 0 0 0 0 0 0 0 0 0 0 0 0 0 0 0 0 0 0 0 0 0 0 0 0 0 0 0 0 0 0 0 0 0 0 0 0 0 0 0 0 0
0 0 0 0 0 0 0 0 0 0 0 0 0 0 0 0 0 0 0 0 0 0 0 0 0 0 0 0 0 0 0 0 0 0 0 0 0 0 0 0 0 0 0
0 0 0 0 0 0 0 0 0 0 0 0 0 0 0 0 0 0 0 0 0 0 0 0 0 0 0 0 0 0 0 0 0 0 0 0 0 0 0 0 0 0 0
0 0 0 0 0 0 0 0 0 0 0 0 0 0 0 0 0 0 0 0 0 0 0 0 0 0 0 0 0 0 0 0 0 0 0 0 0 0 0 0 0 0 0
0 0 0 0 0 0 0 0 0 0 0 0 0 0 0 0 0 0 0 0 0 0 0 0 0 0 0 0 0 0 0 0 0 0 0 0 0 0 0 0 0 0 0
0 0 0 0 0 0 0 0 0 0 0 0 0 0 0 0 0 0 0 0 0 0 0 0 0 0 0 0 0 0 0 0 0 0 0 0 0 0 0 0 0 0 0
0 0 0 0 0 0 0 0 0 0 0 0 0 0 0 0 0 0 0 0 0 0 0 0 0 0 0 0 0 0 0 0 0 0 0 0 0 0 0 0 0 0 0
0 0 0 0 0 0 0 0 0 0 0 0 0 0 0 0 0 0 0 0 0 0 0 0 0 0 0 0 0 0 0 0 0 0 0 0 0 0 0 0 0 0 0
0 0 0 0 0 0 0 0 0 0 0 0 0 0 0 0 0 0 0 0 0 0 0 0 0 0 0 0 0 0 0 0 0 0 0 0 0 0 0 0 0 0 0
0 0 0 0 0 0 0 0 0 0 0 0 0 0 0 0 0 0 0 0 0 0 0 0 0 0 0 0 0 0 0 0 0 0 0 0 0 0 0 0 0 0 0
0 0 0 0 0 0 0 0 0 0 0 0 0 0 0 0 0 0 0 0 0 0 0 0 0 0 0 0 0 0 0 0 0 0 0 0 0 0 0 0 0 0 0
0 0 0 0 0 0 0 0 0 0 0 0 0 0 0 0 0 0 0 0 0 0 0 0 0 0 0 0 0 0 0 0 0 0 0 0 0 0 0 0 0 0 0
0 0 0 0 0 0 0 0 0 0 0 0 0 0 0 0 0 0 0 0 0 0 0 0 0 0 0 0 0 0 0 0 0 0 0 0 0 0 0 0 0 0 0
0 0 0 0 0 0 0 0 0 0 0 0 0 0 0 0 0 0 0 0 0 0 0 0 0 0 0 0 0 0 0 0 0 0 0 0 0 0 0 0 0 0 0
0 0 0 0 0 0 0 0 0 0 0 0 0 0 0 0 0 0 0 0 0 0 0 0 0 0 0 0 0 0 0 0 0 0 0 0 0 0 0 0 0 0 0
0 0 0 0 0 0 0 0 0 0 0 0 0 0 0 0 0 0 0 0 0 0 0 0 0 0 0 0 0 0 0 0 0 0 0 0 0 0 0 0 0 0 0
0 0 0 0 0 0 0 0 0 0 0 0 0 0 0 0 0 0 0 0 0 0 0 0 0 0 0 0 0 0 0 0 0 0 0 0 0 0 0 0 0 0 0
0 0 0 0 0 0 0 0 0 0 0 0 0 0 0 0 0 0 0 0 0 0 0 0 0 0 0 0 0 0 0 0 0 0 0 0 0 0 0 0 0 0 0
0 0 0 0 0 0 0 0 0 0 0 0 0 0 0 0 0 0 0 0 0 0 0 0 0 0 0 0 0 0 0 0 0 0 0 0 0 0 0 0 0 0 0
0 0 0 0 0 0 0 0 0 0 0 0 0 0 0 0 0 0 0 0 0 0 0 0 0 0 0 0 0 0 0 0 0 0 0 0 0 0 0 0 0 0 0
0 0 0 0 0 0 0 0 0 0 0 0 0 0 0 0 0 0 0 0 0 0 0 0 0 0 0 0 0 0 0 0 0 0 0 0 0 0 0 0 0 0 0
0 0 0 0 0 0 0 0 0 0 0 0 0 0 0 0 0 0 0 0 0 0 0 0 0 0 0 0 0 0 0 0 0 0 0 0 0 0 0 0 0 0 0
0 0 0 0 0 0 0 0 0 0 0 0 0 0 0 0 0 0 0 0 0 0 0 0 0 0 0 0 0 0 0 0 0 0 0 0 0 0 0 0 0 0 0
0 0 0 0 0 0 0 0 0 0 0 0 0 0 0 0 0 0 0 0 0 0 0 0 0 0 0 0 0 0 0 0 0 0 0 0 0 0 0 0 0 0 0
0 0 0 0 0 0 0 0 0 0 0 0 0 0 0 0 0 0 0 0 0 0 0 0 0 0 0 0 0 0 0 0 0 0 0 0 0 0 0 0 0 0 0
0 0 0 0 0 0 0 0 0 0 0 0 0 0 0 0 0 0 0 0 0 0 0 0 0 0 0 0 0 0 0 0 0 0 0 0 0 0 0 0 0 0 0
Wind_Speed
3 3 3 2 1 1 1 1 1 2 2 2 3 3 3 3 3 2 2 2 3 2 2 2 2 3 2 2 2 2 2 3 3 3 3 3 4 4 2 3 3 3 1
3 3 2 2 2 1 1 1 1 2 2 2 3 3 3 3 3 3 3 3 3 3 3 3 3 2 3 3 3 3 3 3 4 4 4 4 4 5 4 4 3 3 3
3 3 2 2 2 1 1 1 1 1 1 2 2 3 3 3 3 3 3 3 3 4 4 4 4 4 4 3 4 4 3 3 3 4 4 4 4 4 4 4 4 3 4
4 3 2 2 2 1 1 1 1 1 1 1 2 2 3 3 3 3 4 4 4 4 4 4 4 4 5 5 4 4 4 4 4 4 4 4 4 4 4 4 4 3 4
4 3 2 2 2 1 1 1 1 1 1 1 1 2 2 3 4 5 5 4 4 4 4 4 4 5 6 6 5 5 5 5 4 4 4 5 4 4 4 4 5 5 5
4 3 2 2 2 1 1 1 1 1 1 1 1 2 2 3 5 6 7 5 5 5 5 5 4 3 3 3 4 6 7 7 7 6 5 6 6 5 4 5 5 5 5
4 3 2 2 2 1 1 1 0 0 1 1 2 2 2 3 5 6 7 6 5 5 5 5 4 4 5 5 4 6 6 7 8 9 9 8 8 6 6 7 6 7 7
4 3 2 1 1 1 0 0 1 1 1 1 2 2 2 3 5 6 7 6 5 5 5 5 5 6 6 8 8 7 7 6 6 7 8 8 8 8 8 8 8 8 8
4 3 2 2 1 1 0 0 1 1 1 1 1 2 2 2 4 6 8 5 5 5 5 5 6 6 7 10 8 8 8 7 4 6 8 9 9 9 8 7 7 7 8
3 2 2 2 1 1 0 1 1 1 1 2 2 2 3 3 4 6 8 5 5 5 5 5 4 6 8 10 9 8 9 8 9 7 8 9 9 8 10 10 8 8 8
3 3 2 2 1 1 0 0 1 1 2 2 2 2 3 3 3 4 7 5 6 6 5 5 4 5 8 10 11 9 9 10 10 9 8 7 7 6 7 7 7 8 9
3 3 2 2 1 1 0 1 1 1 2 2 3 2 2 2 2 3 5 6 8 7 6 6 5 8 10 11 9 8 10 11 8 7 7 7 7 6 6 7 8 9 9
3 3 2 2 1 0 0 1 1 2 2 3 3 3 3 3 2 3 5 6 7 7 6 7 9 10 11 10 7 9 10 8 7 7 7 7 7 7 7 7 8 8 10
3 2 2 1 1 0 1 1 2 2 3 3 4 4 4 4 4 4 4 5 6 7 7 7 9 10 9 9 8 7 6 6 7 7 8 7 7 7 7 7 7 6 7
3 2 1 0 0 1 1 2 3 3 3 4 5 5 5 5 5 8 7 7 7 7 9 8 7 7 7 7 7 6 6 6 6 7 7 7 7 7 7 7 7 7 8
2 1 1 1 1 1 2 2 1 3 3 4 6 7 6 6 8 9 10 10 10 10 9 8 7 7 8 7 8 7 7 7 7 7 7 8 8 8 8 7 7 8 9
1 1 1 1 1 2 3 3 3 2 4 5 5 6 8 9 9 10 10 10 11 10 8 8 8 8 8 8 8 8 8 8 8 8 8 8 8 8 8 8 8 8 9
1 0 1 2 2 3 3 3 4 5 5 4 4 5 6 8 9 9 10 9 7 7 7 8 8 8 8 8 8 8 8 8 8 8 9 9 9 9 9 9 9 10 9
1 1 1 2 2 3 3 4 4 5 6 6 6 5 5 7 8 8 8 7 7 7 8 8 8 8 8 9 9 8 9 9 9 9 9 9 9 9 10 10 10 11 10
1 1 2 3 3 3 4 4 5 5 6 6 6 6 6 7 7 7 6 7 8 8 8 8 8 9 9 9 9 9 9 9 10 9 9 9 9 9 10 11 10 10 9
2 2 3 4 3 4 4 5 6 6 6 7 7 6 8 8 8 9 8 8 8 9 9 9 9 9 9 8 9 10 11 10 9 9 9 9 9 9 9 9 10 10 9
2 3 3 4 4 4 5 6 6 7 8 9 8 7 7 8 8 8 8 8 8 8 9 9 9 8 8 9 9 10 11 11 10 10 10 10 10 10 10 9 9 9 9
3 4 4 4 5 5 6 6 7 7 8 8 9 8 8 8 9 9 9 9 9 9 9 9 9 9 9 9 9 9 10 10 10 10 11 11 10 10 9 10 11 11 10
4 5 5 5 6 6 7 7 7 8 9 9 9 9 9 9 9 10 10 9 9 9 9 9 10 13 16 12 10 10 10 10 11 10 13 13 12 10 10 10 11 12 11
4 5 6 6 6 7 7 8 8 9 9 9 9 9 10 10 10 10 10 10 11 11 12 12 10 11 15 16 15 13 11 11 12 11 11 11 12 13 12 13 11 11 11
5 5 6 6 6 7 8 8 9 9 9 9 9 10 10 10 10 10 10 10 10 10 11 10 13 15 16 14 15 14 13 13 13 13 11 10 12 12 12 10 13 11 11
Wind_Direction
139 133 137 133 122 109 72 53 28 32 30 20 24 19 21 15 12 11 1 3 352 357 347 342 339 339 327 320 318 314 303 302 298 312 316 317 311 308 305 301 296 283 256
145 143 134 122 121 111 78 58 41 43 34 30 30 23 26 20 13 7 0 352 346 344 344 338 337 331 318 313 310 303 300 296 294 306 308 313 314 316 308 294 290 288 292
145 145 142 135 123 110 79 57 37 45 49 50 39 25 22 19 17 7 1 354 344 339 336 333 331 324 314 316 304 301 302 298 289 286 299 309 301 304 305 293 285 288 285
145 143 137 127 119 120 101 78 37 35 30 28 23 18 10 4 2 360 355 348 343 338 333 330 331 330 324 321 311 309 306 297 290 286 289 293 295 299 293 291 288 276 277
147 143 133 126 118 112 94 93 75 26 357 11 5 6 7 355 3 351 340 334 332 333 330 331 343 345 343 328 320 315 309 297 291 288 289 291 289 289 290 294 291 289 279
144 132 125 127 118 114 103 73 74 35 342 350 342 359 6 9 14 350 327 324 326 328 330 327 326 317 324 295 299 302 301 297 298 292 287 286 292 294 295 284 287 287 283
143 132 137 137 123 124 128 95 80 290 348 333 333 343 345 20 11 347 329 316 318 325 327 328 329 329 318 320 296 259 261 256 265 281 285 288 292 297 292 282 278 281 285
142 137 132 133 127 125 96 34 311 332 355 324 337 335 335 7 2 342 324 305 314 316 320 323 324 328 343 330 314 306 304 297 286 274 280 287 292 295 287 284 286 282 279
139 139 134 138 135 130 104 324 307 316 321 304 321 320 317 356 16 346 320 311 310 315 321 326 326 327 350 328 309 305 302 301 281 262 279 281 284 282 279 273 268 265 269
141 139 127 127 140 148 36 333 326 308 294 292 304 305 316 333 17 348 323 311 314 318 319 313 333 333 333 323 311 306 302 307 306 292 272 262 262 258 247 253 260 263 269
135 133 130 135 147 134 75 327 302 302 300 298 301 302 311 330 351 353 333 317 319 314 314 313 328 338 319 312 305 302 308 307 298 293 290 286 280 275 266 259 257 259 264
128 130 134 133 127 127 102 324 307 306 293 295 295 299 301 312 336 341 323 313 315 307 307 309 323 326 310 299 296 303 301 293 286 287 286 286 286 284 282 281 275 265 264
141 140 139 137 127 129 226 279 291 296 299 303 300 299 303 312 307 283 285 290 295 296 302 313 306 298 294 285 278 283 284 281 284 285 287 290 293 296 294 286 280 275 272
155 151 150 157 147 176 290 288 295 301 302 303 304 303 304 301 307 318 311 298 287 287 298 297 282 274 273 281 283 276 278 289 292 289 291 292 294 291 286 284 281 278 274
160 155 152 139 297 293 291 314 304 314 324 304 304 303 304 302 329 331 313 308 310 311 308 295 292 293 293 294 294 294 293 290 284 284 286 288 289 286 285 287 282 276 273
158 157 177 229 268 279 284 279 257 272 295 281 285 292 296 304 314 307 302 302 302 300 294 286 289 291 294 297 298 298 295 294 293 288 287 287 286 286 286 283 281 276 273
165 188 237 272 280 285 292 296 297 264 237 248 262 275 284 298 300 298 297 295 288 280 278 284 289 293 295 295 295 295 295 294 295 290 286 286 287 285 284 283 280 277 276
197 254 275 277 284 287 295 298 299 302 303 299 275 264 274 281 286 288 288 289 282 270 279 287 290 292 293 292 292 292 292 292 291 289 287 284 284 284 282 280 279 278 276
233 267 284 292 284 286 290 292 293 294 296 300 304 300 289 285 275 271 270 281 290 291 289 289 289 290 290 289 289 291 290 288 287 286 285 283 283 283 283 283 283 281 275
245 303 288 283 282 284 287 289 291 293 294 298 301 308 314 310 304 301 292 292 291 290 289 289 289 289 291 290 289 288 286 282 282 281 283 283 281 280 281 281 282 281 277
238 236 250 268 281 290 292 292 293 293 293 296 297 303 304 299 297 298 296 293 292 291 292 292 291 291 290 290 288 287 286 284 282 282 282 282 280 279 279 278 277 276 276
250 261 268 278 285 288 294 294 294 294 295 296 297 296 288 286 292 294 294 294 294 292 293 291 288 289 289 287 288 288 287 286 285 284 283 282 280 277 276 275 276 277 274
262 272 277 281 283 284 282 287 291 293 295 296 297 298 297 296 295 295 296 296 295 294 293 291 290 289 287 286 285 286 287 289 290 291 290 286 282 278 276 274 273 275 273
264 272 278 282 284 285 286 289 292 294 295 296 296 297 298 297 297 297 297 296 294 293 292 292 290 290 291 290 287 284 284 289 295 293 290 288 285 279 276 274 273 271 271
265 273 279 282 284 286 288 290 292 294 294 294 296 297 297 296 296 296 297 296 295 293 294 294 291 291 291 292 291 289 290 291 289 291 291 286 281 277 274 272 270 271 269
266 274 279 282 285 288 289 292 293 296 296 297 297 297 296 296 296 296 296 295 295 294 294 293 292 293 294 293 292 294 293 286 281 282 284 281 277 274 271 268 270 268 267